User: anonymous   Login
Location: Unspecified
(0.0000°N, 0.0000°E)
Time: 06:06:27
(UTC+00:00)
Language:

TERCEL - Orbit

View from above orbital plane
View from above orbital plane
View from above satellite
View from above satellite

Ground track
Ground track

The orbit data is extracted from the following two-line orbital elements,

1 20547U 90028B   18168.52316294 +.00000149 +00000-0 +64412-5 0  9999
2 20547 094.0987 329.3273 0082766 337.4541 022.3074 15.24221204555367
Epoch (UTC): 17 June 2018 12:33:21
Eccentricity: 0.0082766
inclination: 94.0987°
perigee height: 436 km
apogee height: 550 km
right ascension of ascending node: 329.3273°
argument of perigee: 337.4541°
revolutions per day: 15.24221204
mean anomaly at epoch: 22.3074°
orbit number at epoch: 55536

The dashed part of the orbit path shows where the satellite is in the earth's shadow,  

DLR